History for Miami, FL

Tuesday, December 11, 2012 — View Current Conditions

Jump to Data:

Date:
Airport Code:
Recently Viewed Airport Codes: KMIA
Daily Summary
  Actual Average Record
Temperature
Mean Temperature 79°F 71°F  
Max Temperature 85°F 78°F 85°F (1986)
Min Temperature 72°F 64°F 32°F (1934)
Degree Days
Heating Degree Days 0 1  
Month to date heating degree days 0 7  
Since 1 July heating degree days 1 10  
Cooling Degree Days 14 7  
Month to date cooling degree days 118 82  
Year to date cooling degree days 4558 4454  
Growing Degree Days 28 (Base 50)    
Moisture
Dew Point 73°F    
Average Humidity 82    
Maximum Humidity 94    
Minimum Humidity 70    
Precipitation
Precipitation 0.06 in 0.06 in 5.01 in (1929)
Month to date precipitation 0.30 0.76  
Year to date precipitation 86.73 60.62  
Snow
Snow 0.00 in in in ()
Month to date snowfall 0.0  
Since 1 July snowfall 0.0  
Snow Depth 0.00 in    
Sea Level Pressure
Sea Level Pressure 29.99 in    
Wind
Wind Speed 7 mph (SSE)    
Max Wind Speed 14 mph    
Max Gust Speed 28 mph    
Visibility 9 miles    
Events Rain , Thunderstorm    
T = Trace of Precipitation, MM = Missing Value Source: NWS Daily Summary

Show full METARS

(help) - Comma Delimited File

Hourly Observations

Time(EST) Temperature Dew Point Humidity Sea Level Pressure Visibility Wind Direction Wind Speed Gust Speed Precipitation Events Conditions
12:53 AM 77.0°F 73.9°F 90% 29.97 in 7.0 miles SSE 9.2 mph - N/A   Overcast
1:02 AM 77.0°F 73.4°F 89% 29.97 in 7.0 miles SSE 6.9 mph - N/A   Overcast
1:53 AM 77.0°F 73.0°F 88% 29.96 in 7.0 miles SSE 8.1 mph - N/A   Overcast
2:30 AM 77.0°F 73.4°F 89% 29.97 in 6.0 miles South 5.8 mph - N/A Thunderstorm Overcast
2:53 AM 77.0°F 73.0°F 88% 29.97 in 6.0 miles South 6.9 mph - N/A Thunderstorm Overcast
3:53 AM 72.0°F 69.1°F 91% 29.98 in 6.0 miles SW 3.5 mph - 0.05 in Rain , Thunderstorm Thunderstorms and Rain
4:10 AM 71.6°F 69.8°F 94% 29.96 in 7.0 miles Calm Calm - 0.01 in   Mostly Cloudy
4:53 AM 72.0°F 69.1°F 91% 29.96 in 10.0 miles Calm Calm - 0.01 in   Mostly Cloudy
5:53 AM 73.0°F 70.0°F 90% 29.98 in 10.0 miles Calm Calm - N/A   Mostly Cloudy
6:36 AM 73.4°F 71.6°F 94% 29.98 in 7.0 miles Calm Calm - N/A   Overcast
6:53 AM 73.0°F 71.1°F 93% 29.98 in 7.0 miles Calm Calm - N/A   Overcast
7:53 AM 75.9°F 73.0°F 91% 30.01 in 10.0 miles Calm Calm - N/A   Overcast
8:11 AM 77.0°F 73.4°F 89% 30.01 in 10.0 miles Calm Calm - N/A   Mostly Cloudy
8:53 AM 79.0°F 75.0°F 88% 30.02 in 10.0 miles SSW 6.9 mph - N/A   Scattered Clouds
9:53 AM 82.0°F 73.9°F 76% 30.02 in 10.0 miles SSW 10.4 mph - N/A   Mostly Cloudy
10:53 AM 82.0°F 73.0°F 74% 30.04 in 10.0 miles SSW 10.4 mph - N/A   Mostly Cloudy
11:53 AM 82.9°F 73.9°F 74% 30.03 in 10.0 miles South 10.4 mph - N/A   Mostly Cloudy
12:53 PM 82.9°F 73.9°F 74% 29.99 in 10.0 miles SSE 8.1 mph - N/A   Mostly Cloudy
1:53 PM 84.9°F 75.0°F 72% 29.97 in 10.0 miles SSE 11.5 mph - N/A   Scattered Clouds
2:53 PM 84.0°F 73.0°F 69% 29.96 in 10.0 miles SSE 11.5 mph 25.3 mph N/A   Mostly Cloudy
3:53 PM 82.9°F 73.0°F 72% 29.96 in 10.0 miles SSE 10.4 mph - N/A   Mostly Cloudy
4:53 PM 80.1°F 73.9°F 81% 29.96 in 10.0 miles South 8.1 mph - N/A   Mostly Cloudy
5:53 PM 79.0°F 73.9°F 84% 29.98 in 10.0 miles SSE 8.1 mph - N/A   Mostly Cloudy
6:45 PM 78.8°F 75.2°F 89% 29.98 in 10.0 miles SSE 10.4 mph - N/A   Overcast
6:53 PM 79.0°F 75.0°F 88% 29.99 in 10.0 miles SSE 10.4 mph 19.6 mph N/A   Overcast
7:21 PM 78.8°F 73.4°F 83% 29.99 in 10.0 miles SSE 9.2 mph - N/A   Overcast
7:53 PM 78.1°F 73.9°F 87% 30.00 in 10.0 miles SSE 9.2 mph - N/A   Overcast
8:53 PM 78.1°F 73.9°F 87% 30.03 in 10.0 miles SSE 6.9 mph - N/A   Mostly Cloudy
9:53 PM 78.1°F 73.9°F 87% 30.06 in 10.0 miles South 4.6 mph - N/A   Overcast
10:53 PM 77.0°F 73.9°F 90% 30.06 in 10.0 miles SSE 5.8 mph - N/A   Overcast
11:53 PM 77.0°F 73.0°F 88% 30.06 in 10.0 miles SE 5.8 mph - N/A   Overcast